AKDT,Max TemperatureF,Mean TemperatureF,Min TemperatureF,Max Dew PointF,MeanDew PointF,Min DewpointF,Max Humidity, Mean Humidity, Min Humidity, Max Sea Level PressureIn, Mean Sea Level PressureIn, Min Sea Level PressureIn, Max VisibilityMiles, Mean VisibilityMiles, Min VisibilityMiles, Max Wind SpeedMPH, Mean Wind SpeedMPH, Max Gust SpeedMPH,PrecipitationIn, CloudCover, Events, WindDirDegrees
2012-5-1,44,37,30,32,22,14,96,58,34,29.74,29.68,29.64,10,10,10,16,6,26,0.00,2,,306
2012-5-2,43,33,27,21,13,6,66,42,30,29.79,29.77,29.75,10,10,10,14,8,18,0.00,0,,342
2012-5-3,43,34,26,28,24,16,80,63,48,29.78,29.71,29.66,10,10,10,6,3,,0.00,6,,85
2012-5-4,46,37,30,33,28,23,82,69,49,29.85,29.79,29.73,10,10,10,7,2,,0.00,6,,193
2012-5-5,46,40,34,34,31,29,86,72,56,29.85,29.79,29.68,10,10,10,15,5,,0.00,7,,90
2012-5-6,45,40,35,39,34,28,96,79,58,29.66,29.53,29.47,10,9,6,14,8,,0.18,8,Rain,106
2012-5-7,48,40,33,36,32,28,100,73,56,29.79,29.74,29.66,10,10,8,12,4,18,0.00,5,Rain,207
2012-5-8,46,36,28,37,33,27,92,81,68,29.69,29.65,29.61,10,10,10,16,5,20,0.00,1,,259
2012-5-9,48,39,32,35,32,29,92,78,60,29.69,29.58,29.37,10,10,6,25,9,37,0.06,5,Rain,89
2012-5-10,44,38,33,36,34,31,100,82,60,29.40,29.35,29.21,10,9,4,22,9,33,0.32,7,Rain,87
2012-5-11,42,38,33,36,34,31,100,85,73,29.57,29.42,29.21,10,10,9,10,5,20,0.02,7,Rain,156
2012-5-12,46,36,30,34,31,29,96,82,60,29.71,29.59,29.52,10,10,9,13,4,22,0.02,6,Rain-Snow,119
2012-5-13,43,38,33,33,31,27,92,77,60,29.95,29.84,29.72,10,10,9,16,9,18,0.00,6,Snow,90
2012-5-14,46,40,35,36,31,26,89,67,51,30.25,30.10,29.95,10,10,10,15,6,21,0.00,3,Snow,293
2012-5-15,46,36,28,36,32,28,96,77,62,30.37,30.32,30.25,10,10,10,16,4,,0.00,0,,260
2012-5-16,50,38,28,37,33,27,92,75,56,30.38,30.34,30.29,10,10,10,13,4,,0.00,0,,244
2012-5-17,48,38,28,37,33,28,96,76,56,30.29,30.20,30.07,10,10,10,13,4,,0.00,0,,235
2012-5-18,48,38,28,33,30,26,96,67,47,30.06,29.96,29.87,10,10,10,17,4,21,0.00,2,,121
2012-5-19,53,46,41,35,31,28,71,56,43,29.86,29.81,29.79,10,10,10,15,9,23,0.00,8,,59
2012-5-20,46,42,39,41,39,35,96,84,71,29.81,29.78,29.74,10,10,10,12,3,,0.01,8,Rain,229
2012-5-21,52,44,39,42,40,37,100,89,64,29.73,29.65,29.59,10,10,7,15,3,,0.02,7,Rain,233
2012-5-22,54,48,42,43,40,37,100,78,57,29.92,29.77,29.65,10,10,10,12,4,,0.02,7,Rain,229
2012-5-23,50,47,41,43,42,39,93,83,74,30.04,29.98,29.93,10,10,9,16,5,,0.00,5,,225
2012-5-24,54,45,37,42,40,36,96,76,59,30.09,30.07,30.02,10,10,5,15,4,,0.00,3,,254
2012-5-25,51,48,45,40,37,33,82,66,52,30.03,29.83,29.68,10,10,10,12,5,18,0.00,8,,131
2012-5-26,50,46,42,43,38,34,93,77,65,29.70,29.64,29.60,10,10,10,10,6,,0.14,7,Rain,242
2012-5-27,51,46,42,43,40,34,100,79,61,29.93,29.81,29.71,10,10,10,12,2,,0.00,8,Rain,250
2012-5-28,53,46,39,36,34,32,86,61,48,29.92,29.82,29.70,10,10,10,12,4,,0.00,6,,134
2012-5-29,52,47,42,38,35,33,79,65,54,29.68,29.53,29.39,10,10,10,15,8,20,0.00,6,,75
2012-5-30,50,47,43,36,34,31,76,62,56,29.43,29.38,29.31,10,10,10,17,9,20,0.00,6,,73
2012-5-31,50,44,41,36,34,31,82,63,50,29.70,29.56,29.43,10,10,10,12,6,,0.00,6,,69